Retour au catalogue

THORAD DELTA 1 DEB

ActifSSO
NORAD 8142·DEBRIS·🇺🇸 United States

Lancé Nov 15, 1974 depuis Vandenberg Space Force Base

Loading…

Prochains Passages (prochaines 24 heures)

TLE

FraisSource: Space-Track

Époque: Sep 14, 2026, 15:02 UTC

1 08142U 74089L   26257.62662828  .00022781  00000-0  10188+0 0  9992
2 08142 101.2756 146.3882 0470060 131.4028 261.7900 12.48855977293619

Suivez THORAD DELTA 1 DEB en temps réel avec AllMySat

Download on the App Store